| time (UTC) | temp F | wind direction | speed MPH | gust MPH | rain 1hr in | rain 24hr in | rain mn in | humidity % | barometer mb |
| 20260831122522 | 72 | 307 | 2.0 | 7.0 | 0.00 | 0.01 | 0.01 | 62 | 1014.0 |
| 20260831121520 | 71 | 268 | 2.0 | 6.0 | 0.00 | 0.01 | 0.01 | 62 | 1014.0 |
| 20260831120518 | 71 | 278 | 4.0 | 8.0 | 0.00 | 0.01 | 0.01 | 60 | 1013.8 |
| 20260831115516 | 72 | 319 | 3.0 | 9.0 | 0.00 | 0.01 | 0.01 | 60 | 1014.0 |
| 20260831114614 | 72 | 280 | 4.0 | 11.0 | 0.00 | 0.01 | 0.01 | 61 | 1014.0 |
| 20260831113612 | 73 | 304 | 3.0 | 8.0 | 0.00 | 0.01 | 0.01 | 59 | 1014.1 |
| 20260831112610 | 72 | 284 | 4.0 | 9.0 | 0.00 | 0.01 | 0.01 | 65 | 1014.0 |
| 20260831111608 | 72 | 328 | 2.0 | 7.0 | 0.00 | 0.01 | 0.01 | 65 | 1014.0 |
| 20260831110606 | 71 | 312 | 3.0 | 4.0 | 0.00 | 0.01 | 0.01 | 65 | 1014.1 |
| 20260831105604 | 72 | 289 | 3.0 | 8.0 | 0.00 | 0.01 | 0.01 | 66 | 1014.2 |
| 20260831104602 | 71 | 167 | 2.0 | 7.0 | 0.00 | 0.01 | 0.01 | 66 | 1014.2 |
| 20260831103620 | 70 | 101 | 3.0 | 9.0 | 0.00 | 0.01 | 0.01 | 67 | 1014.3 |
| 20260831102558 | 70 | 321 | 4.0 | 11.0 | 0.00 | 0.01 | 0.01 | 69 | 1014.3 |
| 20260831101556 | 70 | 279 | 2.0 | 6.0 | 0.00 | 0.01 | 0.01 | 73 | 1014.3 |
| 20260831100554 | 68 | 353 | 2.0 | 6.0 | 0.00 | 0.01 | 0.01 | 75 | 1014.3 |
| 20260831095552 | 68 | 298 | 3.0 | 6.0 | 0.00 | 0.01 | 0.01 | 74 | 1014.5 |
| 20260831094610 | 68 | 291 | 3.0 | 8.0 | 0.00 | 0.01 | 0.01 | 72 | 1014.5 |
| 20260831093548 | 69 | 291 | 4.0 | 9.0 | 0.00 | 0.01 | 0.01 | 71 | 1014.6 |
| 20260831092546 | 68 | 297 | 1.0 | 4.0 | 0.00 | 0.01 | 0.01 | 73 | 1014.5 |
| 20260831091543 | 69 | 270 | 3.0 | 9.0 | 0.01 | 0.01 | 0.01 | 72 | 1014.5 |
| 20260831090541 | 69 | 286 | 3.0 | 8.0 | 0.01 | 0.01 | 0.01 | 73 | 1014.6 |
| 20260831085539 | 69 | 277 | 2.0 | 7.0 | 0.01 | 0.01 | 0.01 | 73 | 1014.6 |
| 20260831084537 | 68 | 241 | 4.0 | 9.0 | 0.01 | 0.01 | 0.01 | 76 | 1014.6 |
| 20260831083535 | 67 | 267 | 2.0 | 6.0 | 0.01 | 0.01 | 0.01 | 81 | 1014.6 |
| 20260831082534 | 66 | 282 | 3.0 | 6.0 | 0.01 | 0.01 | 0.01 | 84 | 1014.7 |
| 20260831081532 | 65 | 299 | 1.0 | 4.0 | 0.00 | 0.00 | 0.00 | 86 | 1014.6 |
| 20260831080529 | 64 | 310 | 1.0 | 4.0 | 0.00 | 0.00 | 0.00 | 87 | 1014.5 |
| 20260831075527 | 64 | 71 | 1.0 | 4.0 | 0.00 | 0.00 | 0.00 | 88 | 1014.4 |
| 20260831074545 | 63 | 310 | 2.0 | 4.0 | 0.00 | 0.00 | 0.00 | 88 | 1014.4 |
| 20260831073523 | 63 | 309 | 2.0 | 4.0 | 0.00 | 0.00 | 0.00 | 88 | 1014.4 |
| 20260831072521 | 63 | 295 | 2.0 | 4.0 | 0.00 | 0.00 | 0.00 | 88 | 1014.4 |
| 20260831071519 | 64 | 332 | 1.0 | 4.0 | 0.00 | 0.00 | 0.00 | 87 | 1014.4 |
| 20260831070517 | 64 | 326 | 2.0 | 4.0 | 0.00 | 0.00 | 0.00 | 85 | 1014.4 |
| 20260831065515 | 64 | 330 | 1.0 | 4.0 | 0.00 | 0.00 | 0.00 | 84 | 1014.3 |
| 20260831064633 | 64 | 9 | 1.0 | 4.0 | 0.00 | 0.00 | 0.00 | 85 | 1014.3 |
| 20260831062629 | 64 | 336 | 1.0 | 4.0 | 0.00 | 0.00 | 0.00 | 84 | 1014.2 |
| 20260831061607 | 64 | 330 | 2.0 | 4.0 | 0.00 | 0.00 | 0.00 | 85 | 1014.0 |
| 20260831060605 | 63 | 4 | 1.0 | 6.0 | 0.00 | 0.00 | 0.00 | 86 | 1014.0 |
| 20260831055623 | 62 | 25 | 1.0 | 4.0 | 0.00 | 0.00 | 0.00 | 87 | 1013.8 |
| 20260831054601 | 62 | 2 | 1.0 | 4.0 | 0.00 | 0.00 | 0.00 | 88 | 1013.7 |
| 20260831053559 | 62 | 26 | 1.0 | 2.0 | 0.00 | 0.00 | 0.00 | 88 | 1013.7 |
| 20260831052557 | 61 | 13 | 1.0 | 4.0 | 0.00 | 0.00 | 0.00 | 88 | 1013.6 |
| 20260831051615 | 61 | 11 | 1.0 | 2.0 | 0.00 | 0.00 | 0.00 | 88 | 1013.5 |
| 20260831050553 | 61 | 23 | 1.0 | 2.0 | 0.00 | 0.00 | 0.00 | 88 | 1013.4 |
| 20260831045551 | 61 | 23 | 0.0 | 2.0 | 0.00 | 0.00 | 0.00 | 87 | 1013.5 |
| 20260831044609 | 60 | 23 | 0.0 | 2.0 | 0.00 | 0.00 | 0.00 | 87 | 1013.5 |
| 20260831043547 | 60 | 23 | 1.0 | 2.0 | 0.00 | 0.00 | 0.00 | 88 | 1013.5 |
| 20260831042545 | 60 | 0.0 | 0.0 | 0.00 | 0.00 | 0.00 | 87 | 1013.3 | |
| 20260831041543 | 60 | 23 | 0.0 | 2.0 | 0.00 | 0.00 | 0.00 | 87 | 1013.3 |
| 20260831040601 | 60 | 23 | 0.0 | 2.0 | 0.00 | 0.00 | 0.00 | 86 | 1013.2 |
| 20260831035539 | 60 | 0.0 | 2.0 | 0.00 | 0.00 | 0.00 | 86 | 1013.0 | |
| 20260831034537 | 60 | 23 | 0.0 | 2.0 | 0.00 | 0.00 | 0.00 | 85 | 1013.2 |
| 20260831033535 | 61 | 23 | 0.0 | 2.0 | 0.00 | 0.00 | 0.00 | 84 | 1013.4 |
| 20260831032533 | 60 | 23 | 0.0 | 2.0 | 0.00 | 0.00 | 0.00 | 85 | 1013.6 |
| 20260831031531 | 60 | 0.0 | 2.0 | 0.00 | 0.00 | 0.00 | 86 | 1013.6 | |
| 20260831030529 | 60 | 55 | 1.0 | 2.0 | 0.00 | 0.00 | 0.00 | 87 | 1013.6 |
| 20260831025547 | 60 | 68 | 0.0 | 2.0 | 0.00 | 0.00 | 0.00 | 86 | 1013.4 |
| 20260831024525 | 60 | 68 | 0.0 | 2.0 | 0.00 | 0.00 | 0.00 | 86 | 1013.6 |
| 20260831023543 | 60 | 0.0 | 2.0 | 0.00 | 0.00 | 0.00 | 85 | 1013.5 | |
| 20260831022521 | 60 | 68 | 0.0 | 2.0 | 0.00 | 0.00 | 0.00 | 86 | 1013.5 |
| 20260831021519 | 59 | 90 | 1.0 | 2.0 | 0.00 | 0.00 | 0.00 | 87 | 1013.7 |
| 20260831020517 | 59 | 79 | 1.0 | 2.0 | 0.00 | 0.00 | 0.00 | 87 | 1014.1 |
| 20260831015515 | 60 | 80 | 1.0 | 2.0 | 0.00 | 0.00 | 0.00 | 87 | 1014.2 |
| 20260831014613 | 60 | 73 | 1.0 | 2.0 | 0.00 | 0.00 | 0.00 | 87 | 1014.0 |
| 20260831013611 | 59 | 0.0 | 2.0 | 0.00 | 0.00 | 0.00 | 87 | 1014.2 | |
| 20260831012609 | 59 | 68 | 0.0 | 2.0 | 0.00 | 0.00 | 0.00 | 87 | 1014.2 |
| 20260831011607 | 59 | 0.0 | 0.0 | 0.00 | 0.00 | 0.00 | 87 | 1014.3 | |
| 20260831010605 | 59 | 68 | 0.0 | 2.0 | 0.00 | 0.00 | 0.00 | 87 | 1014.4 |
| 20260831005603 | 59 | 72 | 1.0 | 2.0 | 0.00 | 0.00 | 0.00 | 87 | 1014.4 |
| 20260831004601 | 60 | 0.0 | 2.0 | 0.00 | 0.00 | 0.00 | 86 | 1014.5 | |
| 20260831003559 | 60 | 68 | 0.0 | 2.0 | 0.00 | 0.00 | 0.00 | 87 | 1014.4 |
| 20260831002557 | 59 | 68 | 0.0 | 2.0 | 0.00 | 0.00 | 0.00 | 87 | 1014.4 |
| 20260831001555 | 59 | 68 | 0.0 | 2.0 | 0.00 | 0.00 | 0.00 | 88 | 1014.5 |
| 20260831000553 | 59 | 0.0 | 0.0 | 0.00 | 0.00 | 0.00 | 87 | 1014.5 | |
| 20260830235551 | 59 | 68 | 0.0 | 2.0 | 0.00 | 0.00 | 0.00 | 86 | 1014.6 |
| 20260830234549 | 59 | 68 | 0.0 | 2.0 | 0.00 | 0.00 | 0.00 | 87 | 1014.8 |
| 20260830233546 | 59 | 0.0 | 0.0 | 0.00 | 0.00 | 0.00 | 86 | 1014.8 | |
| 20260830232605 | 59 | 0.0 | 2.0 | 0.00 | 0.00 | 0.00 | 86 | 1014.9 | |
| 20260830231543 | 59 | 90 | 0.0 | 2.0 | 0.00 | 0.00 | 0.00 | 86 | 1015.0 |
| 20260830230540 | 59 | 113 | 0.0 | 2.0 | 0.00 | 0.00 | 0.00 | 86 | 1015.1 |
| 20260830225538 | 60 | 90 | 0.0 | 2.0 | 0.00 | 0.00 | 0.00 | 86 | 1015.3 |
| 20260830224557 | 59 | 113 | 0.0 | 2.0 | 0.00 | 0.00 | 0.00 | 87 | 1015.3 |
| 20260830223554 | 59 | 113 | 0.0 | 2.0 | 0.00 | 0.00 | 0.00 | 87 | 1015.2 |
| 20260830222532 | 59 | 0.0 | 2.0 | 0.00 | 0.00 | 0.00 | 87 | 1015.3 | |
| 20260830221531 | 60 | 0.0 | 2.0 | 0.00 | 0.00 | 0.00 | 86 | 1015.3 | |
| 20260830220528 | 60 | 113 | 0.0 | 2.0 | 0.00 | 0.00 | 0.00 | 86 | 1015.5 |
| 20260830215547 | 60 | 113 | 0.0 | 2.0 | 0.00 | 0.00 | 0.00 | 86 | 1015.4 |
| 20260830214544 | 60 | 0.0 | 0.0 | 0.00 | 0.00 | 0.00 | 85 | 1015.4 | |
| 20260830213523 | 60 | 0.0 | 0.0 | 0.00 | 0.01 | 0.00 | 85 | 1015.4 | |
| 20260830212540 | 61 | 90 | 0.0 | 2.0 | 0.00 | 0.01 | 0.00 | 84 | 1015.4 |
| 20260830211518 | 61 | 0.0 | 2.0 | 0.00 | 0.01 | 0.00 | 83 | 1015.5 | |
| 20260830210516 | 61 | 90 | 0.0 | 2.0 | 0.00 | 0.01 | 0.00 | 82 | 1015.6 |
| 20260830205635 | 62 | 90 | 0.0 | 2.0 | 0.00 | 0.01 | 0.00 | 82 | 1015.6 |
| 20260830204613 | 62 | 113 | 1.0 | 4.0 | 0.00 | 0.01 | 0.00 | 82 | 1015.5 |
| 20260830203610 | 61 | 120 | 1.0 | 4.0 | 0.00 | 0.01 | 0.00 | 83 | 1015.7 |
| 20260830202608 | 62 | 113 | 0.0 | 2.0 | 0.00 | 0.01 | 0.00 | 83 | 1015.7 |
| 20260830201607 | 62 | 113 | 1.0 | 2.0 | 0.00 | 0.01 | 0.00 | 82 | 1015.6 |
| 20260830200604 | 62 | 113 | 2.0 | 4.0 | 0.00 | 0.01 | 0.00 | 82 | 1015.8 |
| 20260830195602 | 62 | 113 | 2.0 | 2.0 | 0.00 | 0.01 | 0.00 | 82 | 1015.8 |
| 20260830194600 | 62 | 115 | 1.0 | 2.0 | 0.00 | 0.01 | 0.00 | 82 | 1015.8 |
| 20260830193558 | 63 | 113 | 1.0 | 2.0 | 0.00 | 0.01 | 0.00 | 81 | 1015.8 |
| 20260830192616 | 64 | 146 | 1.0 | 4.0 | 0.00 | 0.01 | 0.00 | 79 | 1015.9 |
| 20260830191554 | 64 | 0.0 | 0.0 | 0.00 | 0.01 | 0.00 | 78 | 1015.9 | |
| 20260830190552 | 65 | 0.0 | 0.0 | 0.00 | 0.01 | 0.00 | 75 | 1015.9 | |
| 20260830185610 | 67 | 0.0 | 0.0 | 0.00 | 0.01 | 0.00 | 72 | 1015.9 | |
| 20260830184548 | 67 | 238 | 1.0 | 4.0 | 0.00 | 0.01 | 0.00 | 70 | 1015.9 |
| 20260830183546 | 68 | 256 | 1.0 | 4.0 | 0.00 | 0.01 | 0.00 | 69 | 1015.9 |
| 20260830182605 | 68 | 270 | 1.0 | 2.0 | 0.00 | 0.01 | 0.00 | 69 | 1015.9 |
| 20260830181542 | 68 | 248 | 0.0 | 2.0 | 0.00 | 0.01 | 0.00 | 68 | 1015.8 |
| 20260830180540 | 69 | 225 | 0.0 | 2.0 | 0.00 | 0.01 | 0.00 | 68 | 1015.8 |
| 20260830175538 | 69 | 270 | 0.0 | 2.0 | 0.00 | 0.01 | 0.00 | 67 | 1015.7 |
| 20260830174536 | 69 | 248 | 0.0 | 2.0 | 0.00 | 0.01 | 0.00 | 67 | 1015.8 |
| 20260830173534 | 70 | 248 | 0.0 | 2.0 | 0.00 | 0.01 | 0.00 | 66 | 1015.7 |
| 20260830172532 | 70 | 262 | 1.0 | 2.0 | 0.00 | 0.01 | 0.00 | 66 | 1015.7 |
| 20260830171530 | 71 | 264 | 2.0 | 4.0 | 0.00 | 0.01 | 0.00 | 65 | 1015.8 |
| 20260830170548 | 71 | 282 | 1.0 | 4.0 | 0.00 | 0.01 | 0.00 | 65 | 1015.9 |
| 20260830165526 | 71 | 273 | 3.0 | 4.0 | 0.00 | 0.01 | 0.00 | 64 | 1015.8 |
| 20260830164524 | 71 | 293 | 3.0 | 6.0 | 0.00 | 0.01 | 0.00 | 64 | 1015.8 |
| 20260830163522 | 72 | 263 | 1.0 | 4.0 | 0.00 | 0.01 | 0.00 | 64 | 1015.7 |
| 20260830162520 | 72 | 276 | 3.0 | 6.0 | 0.00 | 0.01 | 0.00 | 64 | 1015.8 |
| 20260830161518 | 72 | 265 | 4.0 | 9.0 | 0.00 | 0.01 | 0.00 | 63 | 1015.7 |
| 20260830160516 | 71 | 265 | 4.0 | 7.0 | 0.00 | 0.01 | 0.00 | 65 | 1015.7 |
| 20260830155614 | 71 | 228 | 3.0 | 6.0 | 0.00 | 0.01 | 0.00 | 65 | 1015.7 |
| 20260830154612 | 72 | 275 | 4.0 | 9.0 | 0.00 | 0.01 | 0.00 | 65 | 1015.6 |
| 20260830153610 | 72 | 265 | 3.0 | 6.0 | 0.00 | 0.01 | 0.00 | 64 | 1015.7 |
| 20260830152608 | 73 | 256 | 2.0 | 4.0 | 0.00 | 0.01 | 0.00 | 65 | 1015.8 |
| 20260830151606 | 71 | 272 | 4.0 | 11.0 | 0.00 | 0.01 | 0.00 | 65 | 1015.6 |
| 20260830150624 | 72 | 255 | 4.0 | 11.0 | 0.00 | 0.01 | 0.00 | 65 | 1015.7 |
| 20260830145602 | 71 | 289 | 4.0 | 9.0 | 0.00 | 0.01 | 0.00 | 65 | 1015.6 |
| 20260830144600 | 71 | 265 | 4.0 | 11.0 | 0.00 | 0.01 | 0.00 | 66 | 1015.7 |
| 20260830143557 | 73 | 253 | 3.0 | 7.0 | 0.00 | 0.01 | 0.00 | 63 | 1015.7 |
| 20260830142556 | 71 | 264 | 3.0 | 7.0 | 0.00 | 0.01 | 0.00 | 66 | 1015.4 |
| 20260830141553 | 72 | 258 | 3.0 | 6.0 | 0.00 | 0.01 | 0.00 | 64 | 1015.6 |
| 20260830140551 | 72 | 280 | 4.0 | 8.0 | 0.00 | 0.01 | 0.00 | 66 | 1015.5 |
| 20260830135549 | 71 | 262 | 4.0 | 8.0 | 0.00 | 0.01 | 0.00 | 65 | 1015.6 |
| 20260830134547 | 72 | 267 | 5.0 | 9.0 | 0.00 | 0.01 | 0.00 | 64 | 1015.5 |
| 20260830133545 | 72 | 262 | 5.0 | 13.0 | 0.00 | 0.01 | 0.00 | 64 | 1015.4 |
| 20260830132543 | 71 | 274 | 4.0 | 7.0 | 0.00 | 0.01 | 0.00 | 66 | 1015.3 |
| 20260830131541 | 71 | 262 | 4.0 | 11.0 | 0.00 | 0.01 | 0.00 | 66 | 1015.3 |
| 20260830130539 | 71 | 250 | 3.0 | 7.0 | 0.00 | 0.01 | 0.00 | 66 | 1015.2 |
| 20260830125537 | 71 | 275 | 4.0 | 9.0 | 0.00 | 0.01 | 0.00 | 66 | 1015.1 |
| 20260830124535 | 71 | 256 | 5.0 | 11.0 | 0.00 | 0.01 | 0.00 | 64 | 1015.2 |
| 20260830123553 | 73 | 255 | 5.0 | 11.0 | 0.00 | 0.01 | 0.00 | 64 | 1015.0 |